This is the latest recevied weather packets stored in our database for station/object N0ZRD-10. If no packets are shown the sender has not sent any weather packets the latest 10 day(s).
| Time | Temp. | Humidity | Pressure | Rain* | Wind** | Luminosity | Snow |
|---|---|---|---|---|---|---|---|
| 1777825359 | 13.89° C | 27% | - | 0 mm | - | - | - |
| 1777824758 | 13.89° C | 26% | - | 0 mm | - | - | - |
| 1777824157 | 13.33° C | 31% | - | 0 mm | - | - | - |
| 1777823557 | 13.33° C | 32% | - | 0 mm | - | - | - |
| 1777821753 | 13.33° C | 36% | - | 0 mm | - | - | - |
| 1777821153 | 12.78° C | 39% | - | 0 mm | - | - | - |
| 1777820552 | 12.22° C | 41% | - | 0 mm | - | - | - |
| 1777819951 | 12.22° C | 43% | - | 0 mm | - | - | - |
| 1777819350 | 12.22° C | 47% | - | 0 mm | - | - | - |
| 1777817546 | 11.67° C | 46% | - | 0 mm | - | - | - |
| 1777816946 | 11.67° C | 49% | - | 0 mm | - | - | - |
| 1777816341 | 11.11° C | 48% | - | 0 mm | - | - | - |
| 1777815739 | 10.56° C | 51% | - | 0 mm | - | - | - |
| 1777815139 | 10.56° C | 54% | - | 0 mm | - | - | - |
| 1777813336 | 9.44° C | 62% | - | 0 mm | - | - | - |
| 1777812734 | 8.33° C | 63% | - | 0 mm | - | - | - |
| 1777812133 | 7.78° C | 64% | - | 0 mm | - | - | - |
| 1777811532 | 7.78° C | 66% | - | 0 mm | - | - | - |
| 1777810929 | 7.22° C | 66% | - | 0 mm | - | - | - |
| 1777809728 | 6.67° C | 74% | - | 0 mm | - | - | - |
| 1777809126 | 5° C | 82% | - | 0 mm | - | - | - |
| 1777808525 | 4.44° C | 84% | - | 0 mm | - | - | - |
| 1777807924 | 3.89° C | 82% | - | 0 mm | - | - | - |
| 1777807325 | 3.89° C | 81% | - | 0 mm | - | - | - |
| 1777806722 | 3.89° C | 81% | - | 0 mm | - | - | - |
* Rain latest hour (hover to see other rain measurements)
** Current wind speed in m/s (hover to see current wind gust speed)